Chicago DuPage, IL

8:22 PM CDT on May 24, 2017 (GMT -0500)
Du Page

Weather History for KDPA - August, 2014

Change the Weather History Date:

Tuesday, August 12, 2014

  Actual Average Record
Temperature  
Mean Temperature 66 °F 73 °F  
Max Temperature 72 °F 83 °F 94 °F (2010)
Min Temperature 59 °F 62 °F 48 °F (2004)
Degree Days  
Heating Degree Days 0 0  
Month to date heating degree days 0 0  
Since 1 June heating degree days 27 38  
Since 1 July heating degree days 9 2  
Cooling Degree Days 1 8  
Month to date cooling degree days 87 96  
Year to date cooling degree days 517 598  
Since 1 June cooling degree days 448 552  
Growing Degree Days 16 (Base 50)    
Moisture  
Dew Point 58 °F    
Average Humidity 80    
Maximum Humidity 93    
Minimum Humidity 55    
Precipitation  
Precipitation 0.25 in 0.15 in 0.70 in (2005)
Month to date precipitation 2.32 1.90  
Year to date precipitation 19.08 22.93  
Sea Level Pressure  
Sea Level Pressure 29.85 in    
Wind  
Wind Speed 11 mph (NW)    
Max Wind Speed 25 mph    
Max Gust Speed 31 mph    
Visibility 9 miles    
Events Rain    
T = Trace of Precipitation, MM = Missing Value Source: NWS Daily Summary

Daily Weather History Graph

Daily Weather History Graph

Search for Another Location

Airport or City:

Trip Planner

Search our weather history database for the weather conditions in past years. The results will help you decide how hot, cold, wet, or windy it might be!

Date:

Astronomy

Aug. 12, 2014 Rise Set
Actual Time 5:57 AM CDT 7:57 PM CDT
Civil Twilight 5:27 AM CDT 8:27 PM CDT
Nautical Twilight 4:50 AM CDT 9:04 PM CDT
Astronomical Twilight 4:10 AM CDT 9:44 PM CDT
Moon 9:01 PM CDT (8/12) 8:18 AM CDT (8/12)
Length of Visible Light 15h 00m
Length of Day
13h 59m
Waning Gibbous, 94% of the Moon is Illuminated
Aug 12
Waning Gibbous
Aug 17
Last Quarter
Aug 25
New
Sep 2
First Quarter
Sep 8
Full

Hourly Weather History & Observations

Time (CDT) Temp. Dew Point Humidity Pressure Visibility Wind Dir Wind Speed Gust Speed Precip Events Conditions
12:52 AM 66.9 °F 63.0 °F 87% 29.78 in 10.0 mi NW 12.7 mph - N/A   Overcast
1:03 AM 66.9 °F 63.0 °F 87% 29.79 in 10.0 mi WNW 10.4 mph - N/A   Overcast
1:52 AM 66.9 °F 62.1 °F 84% 29.76 in 10.0 mi WNW 11.5 mph 21.9 mph N/A   Overcast
2:00 AM 66.0 °F 62.1 °F 87% 29.78 in 10.0 mi NW 13.8 mph - N/A   Overcast
2:10 AM 66.0 °F 61.0 °F 84% 29.78 in 10.0 mi NW 16.1 mph 21.9 mph N/A   Overcast
2:52 AM 64.9 °F 61.0 °F 87% 29.76 in 10.0 mi NNW 16.1 mph - N/A   Overcast
3:00 AM 64.9 °F 62.1 °F 90% 29.77 in 5.0 mi NNW 16.1 mph - 0.03 in Rain Rain
3:06 AM 64.9 °F 62.1 °F 90% 29.77 in 4.0 mi NNW 13.8 mph - 0.04 in Rain Rain
3:23 AM 64.0 °F 62.1 °F 93% 29.77 in 3.0 mi NNW 15.0 mph - 0.23 in Rain Heavy Rain
4:48 AM 64.4 °F 60.8 °F 88% 29.78 in 10.0 mi NNW 15.0 mph - N/A   Overcast
4:52 AM 64.0 °F 61.0 °F 90% 29.77 in 10.0 mi NNW 16.1 mph - N/A   Overcast
5:52 AM 64.0 °F 60.1 °F 87% 29.79 in 10.0 mi NW 11.5 mph - N/A   Overcast
6:52 AM 63.0 °F 57.9 °F 84% 29.81 in 7.0 mi NW 16.1 mph - 0.00 in Rain Light Rain
7:12 AM 62.1 °F 57.0 °F 84% 29.82 in 10.0 mi NNW 17.3 mph - 0.00 in   Overcast
7:52 AM 63.0 °F 55.9 °F 78% 29.83 in 10.0 mi NW 13.8 mph 21.9 mph 0.00 in   Overcast
8:52 AM 62.1 °F 55.0 °F 78% 29.84 in 10.0 mi NNW 20.7 mph - N/A   Overcast
9:52 AM 62.1 °F 55.9 °F 80% 29.86 in 10.0 mi NW 18.4 mph 24.2 mph 0.00 in   Overcast
10:34 AM 60.1 °F 55.9 °F 86% 29.87 in 7.0 mi NW 20.7 mph 25.3 mph 0.00 in Rain Light Rain
10:52 AM 60.1 °F 55.9 °F 86% 29.87 in 5.0 mi NW 15.0 mph - 0.00 in Rain Light Rain
11:02 AM 60.1 °F 55.0 °F 83% 29.88 in 10.0 mi NNW 17.3 mph - 0.00 in Rain Light Rain
12:52 PM 62.1 °F 55.9 °F 80% 29.89 in 10.0 mi NNW 12.7 mph - 0.01 in Rain Light Rain
1:52 PM 64.0 °F 55.0 °F 73% 29.90 in 10.0 mi NW 11.5 mph - 0.00 in   Overcast
2:52 PM 66.0 °F 55.0 °F 68% 29.91 in 10.0 mi NNW 12.7 mph - N/A   Overcast
3:05 PM 68.0 °F 55.9 °F 65% 29.91 in 10.0 mi NNW 13.8 mph - N/A   Overcast
3:52 PM 68.0 °F 55.0 °F 63% 29.91 in 10.0 mi NW 12.7 mph - N/A   Overcast
4:52 PM 70.0 °F 55.0 °F 59% 29.92 in 10.0 mi NNW 16.1 mph - N/A   Overcast
5:52 PM 72.0 °F 55.9 °F 57% 29.92 in 10.0 mi NNW 12.7 mph - N/A   Partly Cloudy
6:52 PM 71.1 °F 54.0 °F 55% 29.93 in 10.0 mi NNW 10.4 mph - N/A   Clear
7:52 PM 66.9 °F 55.9 °F 68% 29.93 in 10.0 mi WNW 4.6 mph - N/A   Clear
8:52 PM 62.1 °F 57.0 °F 84% 29.96 in 10.0 mi Calm Calm - N/A   Clear
9:52 PM 61.0 °F 55.9 °F 83% 29.96 in 10.0 mi Calm Calm - N/A   Scattered Clouds
10:52 PM 61.0 °F 55.9 °F 83% 29.97 in 10.0 mi Calm Calm - N/A   Scattered Clouds
11:52 PM 60.1 °F 55.9 °F 86% 29.97 in 10.0 mi West 5.8 mph - N/A   Clear